Location: Campo Claro
(10.4907°N, 66.8285°W)
Time: 03:48:14
(UTC+00:00)

BREEZE-M DEB (TANK) - Pass Details

Date: 29 June 2022
Orbit: 342 x 14877 km, 49.6° (Epoch: 14 August)

Event Time Altitude Azimuth Distance (km) Brightness Sun altitude
Rises 21:33:53 0° 317° (NW) 15,813 11.9 17.1°
Reaches altitude 10° 21:50:16 10° 322° (NW) 16,627 12.0 13.3°
Maximum altitude 00:10:17 82° 245° (WSW) 8,477 9.2 -18.0°
Enters shadow 00:37:12 17° 155° (SSE) 5,997 8.0 -23.7°
